Location: Kershaw
(34.5481°N, 80.5823°W)
Time: 15:17:32
(UTC+00:00)

Vanguard 1 Rocket - Pass Details

Date: 09 October 2022
Orbit: 650 x 4225 km, 34.3° (Epoch: 08 December)

Event Time Altitude Azimuth Distance (km) Brightness Sun altitude
Rises 18:11:22 0° 177° (S) 7,500 12.7 46.5°
Reaches altitude 10° 18:20:41 10° 156° (SSE) 7,058 12.5 45.7°
Maximum altitude 18:31:53 15° 129° (SE) 6,961 12.1 44.6°
Drops below altitude 10° 18:43:15 10° 102° (ESE) 7,339 11.9 43.4°
Sets 18:52:55 0° 83° (E) 7,996 11.9 42.3°
